• în Republica Moldova
  • Lista ţărilor
  • Pe 7 zile
  • Temperatura apei
  • Hartă satelitară
  • Meteo pe hartă
  • Widget-uri
  • user-avatar
    Intrare

    Meteo pe oră la Grabanow

    Astăzi, 24 Septembrie, Luni

    Timp Temperatura Precipitaţii Vânt Presiune Umiditate
    00:00 +9°C° 2.4 mm 5 m/s 739 mmHg 89%
    01:00 +9°C° 2.4 mm 5 m/s 738 mmHg 90%
    02:00 +9°C° 2.4 mm 6 m/s 737 mmHg 91%
    03:00 +10°C° 1.4 mm 6 m/s 737 mmHg 91%
    04:00 +10°C° 1.4 mm 7 m/s 737 mmHg 91%
    05:00 +10°C° 1.4 mm 8 m/s 736 mmHg 91%
    06:00 +9°C° 0.2 mm 8 m/s 738 mmHg 89%
    07:00 +8°C° 0.2 mm 9 m/s 739 mmHg 86%
    08:00 +7°C° 0.2 mm 9 m/s 741 mmHg 83%
    09:00 +7°C° 0.2 mm 9 m/s 742 mmHg 81%
    10:00 +9°C° 0.2 mm 8 m/s 743 mmHg 79%
    11:00 +10°C° 0.2 mm 8 m/s 744 mmHg 77%
    12:00 +10°C° 0.4 mm 8 m/s 744 mmHg 74%
    13:00 +10°C° 0.4 mm 9 m/s 745 mmHg 71%
    14:00 +11°C° 0.4 mm 9 m/s 745 mmHg 67%
    15:00 +11°C° 0.2 mm 9 m/s 746 mmHg 67%
    16:00 +10°C° 0.2 mm 8 m/s 746 mmHg 66%
    17:00 +10°C° 0.2 mm 7 m/s 746 mmHg 66%
    18:00 +9°C° 0.2 mm 7 m/s 747 mmHg 70%
    19:00 +9°C° 0.2 mm 7 m/s 747 mmHg 73%
    20:00 +8°C° 0.2 mm 7 m/s 748 mmHg 77%
    21:00 +7°C° 0.1 mm 6 m/s 749 mmHg 78%
    22:00 +7°C° 0.1 mm 6 m/s 749 mmHg 79%
    23:00 +7°C° 0.1 mm 6 m/s 750 mmHg 80%

    Mâine, 25 Septembrie, Marţi

    Timp Temperatura Precipitaţii Vânt Presiune Umiditate
    00:00 +5°C° 0 mm 6 m/s 751 mmHg 81%
    01:00 +5°C° 0 mm 6 m/s 751 mmHg 81%
    02:00 +4°C° 0 mm 6 m/s 752 mmHg 82%
    03:00 +4°C° 0 mm 6 m/s 753 mmHg 82%
    04:00 +4°C° 0 mm 6 m/s 753 mmHg 81%
    05:00 +3°C° 0 mm 5 m/s 754 mmHg 81%
    06:00 +4°C° 0 mm 6 m/s 754 mmHg 79%
    07:00 +4°C° 0 mm 6 m/s 755 mmHg 77%
    08:00 +5°C° 0 mm 6 m/s 755 mmHg 75%
    09:00 +7°C° 0.1 mm 6 m/s 756 mmHg 69%
    10:00 +8°C° 0.1 mm 7 m/s 756 mmHg 64%
    11:00 +9°C° 0.1 mm 7 m/s 757 mmHg 58%
    12:00 +10°C° 0.2 mm 7 m/s 757 mmHg 56%
    13:00 +10°C° 0.2 mm 7 m/s 757 mmHg 54%
    14:00 +10°C° 0.2 mm 7 m/s 757 mmHg 53%
    15:00 +10°C° 0.1 mm 7 m/s 758 mmHg 54%
    16:00 +10°C° 0.1 mm 6 m/s 758 mmHg 56%
    17:00 +9°C° 0.1 mm 6 m/s 758 mmHg 57%
    18:00 +8°C° 0 mm 5 m/s 759 mmHg 61%
    19:00 +7°C° 0 mm 5 m/s 760 mmHg 66%
    20:00 +6°C° 0 mm 4 m/s 760 mmHg 70%
    21:00 +6°C° 0 mm 4 m/s 761 mmHg 71%
    22:00 +5°C° 0 mm 4 m/s 762 mmHg 73%
    23:00 +5°C° 0 mm 4 m/s 762 mmHg 74%

    Poimâine, 26 Septembrie, Miercuri

    Timp Temperatura Precipitaţii Vânt Presiune Umiditate
    00:00 +4°C° 0 mm 3 m/s 762 mmHg 76%
    01:00 +4°C° 0 mm 3 m/s 763 mmHg 78%
    02:00 +3°C° 0 mm 3 m/s 763 mmHg 80%
    03:00 +4°C° 0 mm 2 m/s 763 mmHg 81%
    04:00 +4°C° 0 mm 2 m/s 763 mmHg 83%
    05:00 +3°C° 0 mm 2 m/s 764 mmHg 84%
    06:00 +4°C° 0 mm 2 m/s 764 mmHg 80%
    07:00 +5°C° 0 mm 2 m/s 764 mmHg 77%
    08:00 +5°C° 0 mm 2 m/s 764 mmHg 74%
    09:00 +7°C° 0 mm 3 m/s 764 mmHg 66%
    10:00 +8°C° 0 mm 4 m/s 763 mmHg 57%
    11:00 +11°C° 0 mm 4 m/s 763 mmHg 49%
    12:00 +10°C° 0 mm 5 m/s 763 mmHg 47%
    13:00 +12°C° 0 mm 5 m/s 762 mmHg 45%
    14:00 +13°C° 0 mm 6 m/s 761 mmHg 43%
    15:00 +13°C° 0 mm 6 m/s 761 mmHg 46%
    16:00 +12°C° 0 mm 5 m/s 760 mmHg 49%
    17:00 +12°C° 0 mm 5 m/s 759 mmHg 52%
    18:00 +12°C° 0 mm 5 m/s 759 mmHg 53%
    19:00 +10°C° 0 mm 5 m/s 758 mmHg 54%
    20:00 +10°C° 0 mm 5 m/s 758 mmHg 56%
    21:00 +10°C° 0 mm 6 m/s 758 mmHg 55%
    22:00 +10°C° 0 mm 6 m/s 757 mmHg 54%
    23:00 +10°C° 0 mm 6 m/s 757 mmHg 53%

    27 Septembrie, Joi

    Timp Temperatura Precipitaţii Vânt Presiune Umiditate
    00:00 +10°C° 0.1 mm 6 m/s 757 mmHg 55%
    01:00 +10°C° 0.1 mm 6 m/s 756 mmHg 58%
    02:00 +10°C° 0.1 mm 6 m/s 756 mmHg 60%
    03:00 +10°C° 0.1 mm 6 m/s 755 mmHg 60%
    04:00 +10°C° 0.1 mm 7 m/s 755 mmHg 59%
    05:00 +10°C° 0.1 mm 7 m/s 754 mmHg 59%
    06:00 +10°C° 0 mm 7 m/s 754 mmHg 59%
    07:00 +11°C° 0 mm 7 m/s 754 mmHg 60%
    08:00 +11°C° 0 mm 7 m/s 754 mmHg 60%
    09:00 +12°C° 0 mm 7 m/s 754 mmHg 61%
    10:00 +13°C° 0 mm 8 m/s 754 mmHg 61%
    11:00 +15°C° 0 mm 8 m/s 754 mmHg 61%
    12:00 +16°C° 0 mm 8 m/s 753 mmHg 61%
    13:00 +17°C° 0 mm 7 m/s 753 mmHg 61%
    14:00 +18°C° 0 mm 7 m/s 753 mmHg 60%
    15:00 +18°C° 0 mm 7 m/s 753 mmHg 62%
    16:00 +19°C° 0 mm 6 m/s 753 mmHg 64%
    17:00 +19°C° 0 mm 6 m/s 752 mmHg 66%
    18:00 +17°C° 0 mm 5 m/s 752 mmHg 69%
    19:00 +17°C° 0 mm 5 m/s 752 mmHg 71%
    20:00 +16°C° 0 mm 5 m/s 752 mmHg 74%
    21:00 +15°C° 0 mm 5 m/s 752 mmHg 76%
    22:00 +15°C° 0 mm 4 m/s 752 mmHg 78%
    23:00 +14°C° 0 mm 4 m/s 752 mmHg 81%

    28 Septembrie, Vineri

    Timp Temperatura Precipitaţii Vânt Presiune Umiditate
    00:00 +14°C° 0 mm 5 m/s 751 mmHg 82%
    01:00 +14°C° 0 mm 5 m/s 751 mmHg 83%
    02:00 +14°C° 0 mm 5 m/s 750 mmHg 84%
    03:00 +14°C° 0 mm 6 m/s 750 mmHg 84%
    04:00 +14°C° 0 mm 6 m/s 750 mmHg 84%
    05:00 +14°C° 0 mm 6 m/s 749 mmHg 83%
    06:00 +14°C° 0.3 mm 6 m/s 750 mmHg 84%
    07:00 +14°C° 0.3 mm 6 m/s 750 mmHg 84%
    08:00 +14°C° 0.3 mm 6 m/s 750 mmHg 84%
    09:00 +14°C° 0.1 mm 5 m/s 750 mmHg 83%
    10:00 +14°C° 0.1 mm 5 m/s 751 mmHg 83%
    11:00 +15°C° 0.1 mm 5 m/s 751 mmHg 82%
    12:00 +15°C° 0.1 mm 4 m/s 751 mmHg 76%
    13:00 +15°C° 0.1 mm 4 m/s 751 mmHg 70%
    14:00 +17°C° 0.1 mm 4 m/s 751 mmHg 64%
    15:00 +17°C° 0 mm 3 m/s 751 mmHg 62%
    16:00 +16°C° 0 mm 3 m/s 751 mmHg 61%
    17:00 +16°C° 0 mm 2 m/s 751 mmHg 59%
    18:00 +15°C° 0 mm 2 m/s 752 mmHg 62%
    19:00 +13°C° 0 mm 2 m/s 752 mmHg 64%
    20:00 +12°C° 0 mm 1 m/s 752 mmHg 67%
    21:00 +12°C° 0 mm 1 m/s 752 mmHg 67%
    22:00 +11°C° 0 mm 1 m/s 753 mmHg 68%
    23:00 +11°C° 0 mm 1 m/s 753 mmHg 68%

    29 Septembrie, Sâmbătă

    Timp Temperatura Precipitaţii Vânt Presiune Umiditate
    00:00 +10°C° 0 mm 2 m/s 753 mmHg 68%
    01:00 +10°C° 0 mm 2 m/s 753 mmHg 68%
    02:00 +10°C° 0 mm 2 m/s 753 mmHg 67%
    03:00 +10°C° 0 mm 2 m/s 754 mmHg 67%
    04:00 +9°C° 0 mm 2 m/s 754 mmHg 67%
    05:00 +9°C° 0 mm 2 m/s 754 mmHg 67%
    06:00 +9°C° 0 mm 3 m/s 754 mmHg 68%
    07:00 +9°C° 0 mm 3 m/s 755 mmHg 69%
    08:00 +9°C° 0 mm 3 m/s 755 mmHg 70%
    09:00 +10°C° 0 mm 4 m/s 756 mmHg 63%
    10:00 +10°C° 0 mm 4 m/s 756 mmHg 57%
    11:00 +11°C° 0 mm 4 m/s 756 mmHg 50%
    12:00 +12°C° 0 mm 4 m/s 757 mmHg 45%
    13:00 +12°C° 0 mm 4 m/s 757 mmHg 41%
    14:00 +13°C° 0 mm 4 m/s 757 mmHg 37%
    15:00 +13°C° 0 mm 4 m/s 757 mmHg 39%
    16:00 +12°C° 0 mm 3 m/s 757 mmHg 41%
    17:00 +12°C° 0 mm 3 m/s 758 mmHg 43%
    18:00 +10°C° 0 mm 2 m/s 758 mmHg 46%
    19:00 +9°C° 0 mm 2 m/s 759 mmHg 50%
    20:00 +8°C° 0 mm 2 m/s 759 mmHg 53%
    21:00 +7°C° 0 mm 2 m/s 759 mmHg 55%
    22:00 +7°C° 0 mm 2 m/s 759 mmHg 57%
    23:00 +7°C° 0 mm 1 m/s 760 mmHg 59%
    Arată mai mult